THORAD DELTA 1 DEB, 42608

Orbit data source: Space-Track

THORAD DELTA 1 DEB, 42608 is space debris in SSO originally from a launch on Fri, 15 Nov 1974 UTC launched from the Air Force Western Test Range (AFWTR). Debris objects in space refer to the collection of defunct objects orbiting the Earth. Examples of debris include non-operational satellites, rocket bodies, and fragments generated from explosions, collisions, or faulty payload assembly.

Loading next visibility...
Identifier
42608, 1974-089FZ
Orbit
SSO
Country
Flag of USUS
Related business
Manufacturer
Unknown
Mission
Spacecraft
Bus & Motor
Unknown
Mass
Unknown
Launch date (UTC)
1974-11-15 (51 years ago)
Launch vehicle
Unknown
Launch site
Air Force Western Test Range (AFWTR)
Object type
Payload
Rocket body
Debris
Shape & HBR
Unknown
Radar Cross Section
Small (<0.1 m²)

Expand to show TLE details & history
Last TLE update: 4 days ago

TLE from 4 days ago
0 THORAD DELTA 1 DEB
1 42608U 74089FZ  25257.20177206 -.00000012  00000-0  29182-3 0  9993
2 42608 102.5106 239.1502 0073931 346.0899  13.8120 12.28098693529549
Epoch: 2025-09-14T04:50Z
TLE epoch observation values (Epoch: 2025-09-14T04:50:33.105Z)
Latitude
-0.00001°
Longitude
173.08809°
Altitude
1,503.018 km
Speed
7.139 km/s
True Right ascension
15h 56m 36s
True Declination
0° 00' 00"
Sunlit
Object was in daylight at epoch
Visualization orbit readout
Latitude
Unknown
Longitude
Unknown
Altitude
Unknown
Speed
Unknown
Apparent Right ascension
Unknown
Apparent Declination
Unknown
Sunlit
N/A
Visualization observer readout
Local Sidereal Time
12:45:26
Azimuth
Unknown
Elevation
Unknown
Doppler factor
Unknown
Orbital elements
Apogee altitude
1,613.733 km
Perigee altitude
1,496.431 km
Semi-major axis
7,933.219 km
Eccentricity
0.00739
Inclination
102.5106°
RAAN
239.1502°
Arg. of periapsis
346.0899°
True anomaly
14.01609°
Mean anomaly
13.812°
Eccentric anomaly
13.91386°
Mean motion
3.07163 °/min
Orbital period
117.2 mins
BSTAR
0.00029182
Loading maneuver chart data...
Computing Atmospheric mass density...

Documentation

Showing up to 5 results
|